Regional Weather Roundup
Issued by NWS

Home | Current Version | Previous Version | Text Only | Print | Product List | Glossary On
Versions: 1 2 3 4 5 6 7 8 9 10 11 12 13 14 15 16 17 18 19 20 21 22 23 24 25 26 27 28 29 30 31 32 33 34 35 36 37 38 39 40 41 42 43 44 45 46 47 48 49 50
000
ASUS44 KEWX 061111
RWRTX
SOUTH TEXAS REGIONAL WEATHER ROUNDUP
NATIONAL WEATHER SERVICE AUSTIN/SAN ANTONIO TX
500 AM CST FRI MAR 06 2015

NOTE: "FAIR" INDICATED FEW OR NO CLOUDS BELOW 12,000 FEET WITH NO
SIGNIFICANT WEATHER AND/OR OBSTRUCTIONS TO VISIBILITY.

* - THESE STATIONS ARE NOT NWS OR FAA STATIONS...AND ARE NOT SUBJECT
    TO NWS AND FAA QUALITY CONTROL.

TXZ171-172-183>190-061200-
TEXAS HILL COUNTRY AND EDWARDS PLATEAU

CITY           SKY/WX    TMP DP  RH WIND       PRES   REMARKS
JUNCTION       PTCLDY    21  20  96 CALM      30.51S
*LLANO         CLEAR     21  18  86 CALM      30.59S
BURNET         CLEAR     24  18  77 CALM      30.55S
*HORSESHOE BAY CLEAR     22  21  95 S3        30.55S
*KERRVILLE     PTCLDY    23  21  93 CALM      30.52S
*FREDERICKSBRG CLEAR     21  20  96 CALM      30.52R
*ROCKSPRINGS   PTCLDY    28  21  74 E5        30.48S WCI  23
*BOERNE STAGE  PTCLDY    27  21  80 N3        30.54S
*CASTROVILLE   PTCLDY    32  20  62 NE3       30.57S
HONDO          PTCLDY    26  22  84 N8        30.56F WCI  18
*UVALDE        PTCLDY    30  25  81 NE6       30.54F WCI  24
DEL RIO        CLEAR     33  27  78 E5        30.51S WCI  29
LAUGHLIN AFB   CLEAR     30  28  89 E2        30.51S
CARRIZO SPRGS  MOCLDY    32  27  80 S3        30.54R
$$

TXZ173-191>194-202-209-217>225-228-061200-
CENTRAL AND SOUTH CENTRAL TEXAS

CITY           SKY/WX    TMP DP  RH WIND       PRES   REMARKS
GEORGETOWN     PTCLDY    25  18  74 N5        30.56F WCI  19
AUSTIN/BERGSTM PTCLDY    22  19  89 CALM      30.58S
AUSTIN/MABRY   PTCLDY    27  21  78 CALM      30.58S
*AUSTIN/EXEC   PTCLDY    27  21  80 N3        30.58S
*LAGO VISTA    PTCLDY    29  19  68 N6        30.53S WCI  23
SAN MARCOS     CLEAR     27  19  74 N8        30.57F WCI  18
NEW BRAUNFELS  PTCLDY    29  21  72 N7        30.55S WCI  22
RANDOLPH AFB   PTCLDY    30  19  64 N9        30.55S WCI  22
PT SAN ANTONIO PTCLDY    32  20  62 NE8       30.53S WCI  24
SAN ANTONIO    PTCLDY    32  19  58 N7        30.55S WCI  26
STINSON FIELD  PTCLDY    33  19  56 NE7       30.55S WCI  27
*PLEASANTON    PTCLDY    32  23  68 N7        30.57F WCI  26
*LA GRANGE     CLEAR     30  25  82 N3        30.56S
*GIDDINGS      CLEAR     28  23  79 CALM      30.61S
*GONZALES      CLEAR     32  24  72 N7        30.56S WCI  25
$$

TXZ163>164-176>182-195>201-210>213-226-227-235-061200-
SOUTHEAST TEXAS

CITY           SKY/WX    TMP DP  RH WIND       PRES   REMARKS
COLLEGE STN    CLEAR     29  23  78 N6        30.58S WCI  23
*BRYAN         CLEAR     27  25  91 CALM      30.60S
*CALDWELL      CLEAR     28  25  86 N5        30.61S WCI  23
*CROCKETT      CLEAR     30  28  93 CALM      30.61R
*BRENHAM       CLEAR     30  26  84 N5        30.58F WCI  25
HUNTSVILLE     CLEAR     26  22  84 CALM      30.57R
CONROE         PTCLDY    28  24  85 CALM      30.58R
HOUSTON BUSH   PTCLDY    32  24  72 N6        30.57R WCI  26
HOUSTON HOBBY  PTCLDY    35  23  61 NE13      30.56R WCI  26
*HOUSTON SW AP CLEAR     40  33  75 N6        30.57S WCI  36
PEARLAND       CLEAR     35  24  64 NE9       30.57R WCI  28
HOUSTON HOOKS  CLEAR     31  23  72 CALM      30.57R
ELLINGTON FLD  CLEAR     36  21  55 N7        30.56  WCI  30
SUGAR LAND     CLEAR     32  23  69 N6        30.56R WCI  26
*HOUSTON EXEC  CLEAR     28  25  86 N7        30.58S WCI  21
*CLEVELAND MUN CLEAR     28  27  93 CALM      30.58R
*WHARTON       PTCLDY    31  28  88 N9        30.56S WCI  23
*COLUMBUS      FAIR      31  25  79 N7        30.56F WCI  24
$$

TXZ214>216-236>238-061200-
THE UPPER TEXAS COAST

CITY           SKY/WX    TMP DP  RH WIND       PRES   REMARKS
*ORANGE        FAIR      31  20  64 N6        30.56S WCI  25
PORT ARTHUR    FAIR      31  22  69 N10       30.55R WCI  22
GALVESTON      CLEAR     37  24  59 N22G29    30.54S WCI  26
ANGLETON       CLEAR     33  25  72 N13       30.53S WCI  24
*BAY CITY      PTCLDY    35  29  79 N8        30.52F WCI  28
PALACIOS       PTCLDY    34  28  79 N13       30.54S WCI  25
$$

TXZ229>234-239>247-061200-
TEXAS COASTAL BEND AND RIO GRANDE PLAINS

CITY           SKY/WX    TMP DP  RH WIND       PRES   REMARKS
VICTORIA       PTCLDY    32  26  78 N8        30.57R WCI  25
*BEEVILLE      PTCLDY    34  26  74 N12       30.54S WCI  25
ROCKPORT       PTCLDY    37  26  64 N13       30.55R WCI  29
*PORT ARANSAS  PTCLDY    39  31  73 N16       30.53R WCI  30
*PORT LAVACA   PTCLDY    34  30  85 N12       30.55R WCI  25
*INGLESIDE     PTCLDY    39  30  69 N13       30.53R WCI  32
CORPUS CHRISTI MOCLDY    38  27  64 N14       30.54R WCI  30
CORPUS NAS     MOCLDY    40  31  70 N18       30.53R WCI  31
*ROBSTOWN      NOT AVBL
ALICE          MOCLDY    38  26  62 N9        30.54S WCI  31
KINGSVILLE NAS CLOUDY    40  29  64 N8        30.55R WCI  34
COTULLA        MOCLDY    34  25  69 NE7       30.56S WCI  28
*FAITH RANCH   MOCLDY    36  25  64 E7        30.53S WCI  30
LAREDO         CLOUDY    38  22  52 NE16      30.55S WCI  29
$$

TXZ248>255-061200-
DEEP SOUTH TEXAS

CITY           SKY/WX    TMP DP  RH WIND       PRES   REMARKS
BROWNSVILLE    CLOUDY    44  34  67 NW13G21   30.49R WCI  38
PORT ISABEL    CLOUDY    45  33  63 NW21      30.48S WCI  37
*SOUTH PADRE   CLOUDY    46  39  76 NW18      30.47R WCI  39
HARLINGEN      CLOUDY    45  31  58 N16       30.51R WCI  38
*HEBBRONVILLE  CLOUDY   N/A N/A N/A N8G17     30.53S
MCALLEN        CLOUDY    46  27  47 N12       30.53F WCI  41
*WESLACO       CLOUDY    44  28  54 N9        30.52S WCI  39
FALFURRIAS     CLOUDY    41  25  52 N9        30.54S WCI  36
EDINBURG       CLOUDY    45  28  51 N8        30.54S WCI  40
*ZAPATA        CLOUDY    43  19  38 NE7       30.53R WCI  39
$$

TXZ213>215-236>238-242>244-246-247-251-254-255-061200-
CMAN STATIONS

STATION/POSITION TIME  TEMP    WIND        PRES    WAVE
                       AIR SEA DIR/SP/G            HT/PER
                 (UTC) (F)     (DEG/KT/KT) (MB)    (FT/S)
$$

GMZ080-GMZ150>470-061200-
OFFSHORE BUOY REPORTS

STATION/POSITION TIME  TEMP    WIND        PRES    WAVE
                       AIR SEA DIR/SP/G            HT/PER
                 (UTC) (F)     (DEG/KT/KT) (MB)    (FT/S)
$$


USA.gov is the U.S. government's official web portal to all federal, state and local government web resources and services.